Location: Laas
(43.4693°N, 0.3073°E)
Time: 15:23:35
(UTC+00:00)

Meteor 2-21 Rocket - Pass Details

Date: 25 October 2020
Orbit: 935 x 968 km, 82.5° (Epoch: 24 November)

Event Time Altitude Azimuth Distance (km) Brightness Sun altitude
Rises 17:46:14 0° 353° (N) 3,659 7.5 -9.1°
Reaches altitude 10° 17:48:46 10° 355° (N) 2,705 6.8 -9.6°
Maximum altitude 17:54:57 73° 80° (E) 999 4.4 -10.7°
Drops below altitude 10° 18:01:03 10° 166° (SSE) 2,664 6.7 -11.8°
Sets 18:03:32 0° 168° (SSE) 3,600 7.4 -12.3°
